Theta_e
327 326 324 319 314 310 308 309 310 314 314 313 314 315 315 315 315 315 316 318 319 319 319 318 317 316 315 313 312 315 316 318
328 326 323 317 313 311 309 310 318 314 315 314 315 315 316 316 316 317 317 318 319 319 319 317 317 315 314 312 314 314 314 316
328 326 324 318 311 310 311 313 314 315 316 316 317 317 318 321 319 317 318 319 320 319 318 317 315 314 312 311 313 314 313 314
328 327 319 313 314 314 318 316 312 317 317 316 320 316 320 319 317 318 319 320 320 319 318 316 316 315 313 313 312 311 311 313
325 325 316 313 314 312 310 314 322 321 320 322 320 315 322 316 317 318 320 320 319 318 317 317 315 314 312 309 311 310 310 312
324 322 320 315 319 316 317 319 319 317 313 314 314 316 320 320 322 322 321 319 318 319 317 314 310 309 307 307 307 308 308 311
320 319 316 317 317 320 318 316 312 313 315 313 314 320 323 323 323 323 321 321 320 319 315 315 312 311 310 310 308 308 307 308
319 319 319 319 316 313 313 314 315 315 315 314 322 322 323 323 322 322 321 320 320 318 316 315 313 312 309 306 304 306 304 304
317 317 314 313 312 313 313 315 316 319 319 322 324 322 322 324 323 322 321 320 319 317 312 314 313 310 308 307 307 306 306 306
314 313 316 315 316 320 321 320 321 320 323 323 325 326 323 324 323 322 321 320 318 316 315 314 312 310 308 308 307 306 306 305
321 321 319 321 322 323 321 320 319 322 324 324 326 327 325 325 324 322 320 319 317 316 315 313 311 309 309 308 307 307 306 304
324 324 323 322 322 322 321 320 321 323 327 327 328 327 325 325 323 321 320 319 317 315 314 310 310 309 307 306 308 307 306 305
324 323 324 325 325 324 321 320 322 326 326 327 328 326 324 324 323 321 321 318 316 315 312 309 308 307 309 311 310 308 307 305
325 325 325 325 324 324 321 321 323 326 326 328 328 327 324 322 323 321 321 318 316 313 310 310 309 309 311 312 313 311 307 306
326 326 326 327 327 325 321 321 324 326 327 327 327 325 324 323 322 321 319 317 315 311 309 308 309 309 309 310 312 312 309 307
328 327 327 327 327 325 322 324 324 326 327 327 326 324 324 323 322 321 318 317 314 311 309 308 307 309 311 309 308 308 306 306
328 328 328 328 328 327 324 326 326 326 327 327 324 326 324 323 321 319 317 316 311 309 307 306 304 310 309 310 309 306 304 303
328 328 327 328 329 329 327 327 327 326 328 328 326 324 323 321 318 317 316 313 309 307 306 303 304 310 311 309 306 304 304 304
330 329 328 329 329 329 329 328 328 328 329 327 324 321 322 322 321 320 315 312 309 312 308 307 307 310 310 306 303 304 303 302
332 331 330 329 329 329 329 329 329 329 328 326 324 322 322 322 318 319 317 313 312 311 306 308 305 310 305 303 304 303 301 300
Wind_Speed
32 31 29 31 29 29 31 31 33 31 32 30 29 27 26 24 23 22 19 17 15 14 13 13 11 12 13 15 18 18 12 10
32 33 31 29 27 30 32 33 31 31 29 28 26 25 24 22 20 18 16 14 12 12 11 11 10 10 12 15 16 15 10 9
33 32 30 28 27 25 26 30 30 28 25 24 24 23 19 17 16 16 14 12 10 10 9 10 8 10 14 15 13 8 8 7
32 35 36 39 36 33 29 31 33 27 25 23 16 19 13 15 15 13 11 10 9 8 8 10 13 9 10 11 8 8 7 5
39 46 48 46 44 42 40 33 27 23 23 18 21 16 14 14 15 13 12 10 9 7 8 6 4 4 3 3 6 6 5 2
32 34 39 41 35 37 30 25 27 24 20 15 14 17 12 9 9 11 12 10 9 7 5 0 2 3 4 5 5 4 4 2
31 36 40 37 34 30 28 24 27 23 22 16 17 9 11 11 12 11 10 11 8 7 3 3 1 2 3 3 4 4 4 3
32 32 32 34 35 33 33 29 27 32 18 22 14 14 15 13 13 11 10 9 8 6 6 3 3 2 2 2 4 3 3 5
30 26 22 32 34 30 34 30 17 14 15 15 14 14 15 12 11 11 10 10 10 11 7 5 4 4 3 2 2 3 2 1
25 27 24 27 31 25 19 21 19 18 17 22 18 15 16 13 11 11 11 10 9 8 6 5 5 5 4 1 1 2 4 2
24 23 25 27 22 19 16 15 19 16 18 19 17 16 15 14 11 12 13 10 10 9 8 8 6 5 3 2 3 3 5 3
24 22 26 28 23 17 17 17 18 18 20 17 16 16 16 14 13 14 13 11 10 11 10 7 7 6 5 6 7 6 4 5
24 24 23 20 19 19 19 19 19 21 20 17 17 16 16 16 13 16 15 13 13 14 10 10 7 7 4 7 11 12 10 6
24 23 22 22 19 19 20 20 20 20 19 18 20 18 18 18 18 16 17 15 17 16 14 10 8 8 4 8 12 10 10 9
27 25 24 23 22 20 19 19 20 20 19 18 20 23 22 20 19 18 19 18 18 19 18 14 10 9 8 7 8 10 9 10
27 26 26 25 25 23 24 23 23 22 21 22 24 27 25 20 20 21 21 19 17 19 17 14 14 8 8 9 12 11 8 9
29 28 28 27 27 27 25 25 23 19 20 21 24 21 25 23 21 21 22 21 18 21 17 17 15 10 9 14 14 12 12 11
30 29 30 29 28 28 29 27 25 23 24 21 20 25 26 25 20 24 27 23 18 15 19 16 14 16 24 15 14 14 13 14
30 31 31 31 31 31 31 30 26 25 24 25 23 27 29 24 23 30 31 29 29 31 29 26 18 22 23 11 14 14 13 13
31 31 31 31 33 35 32 30 30 30 31 31 33 31 28 28 31 36 38 35 32 30 23 23 22 27 14 12 13 14 12 13
Wind_Direction
164 165 171 171 169 166 162 162 166 157 158 152 147 142 138 135 129 127 126 121 109 104 91 82 81 69 52 47 69 80 63 72
169 169 165 166 163 161 163 163 159 158 155 148 145 140 141 136 133 131 129 127 114 102 90 80 76 59 46 53 63 53 60 61
168 168 163 155 149 160 159 158 155 151 151 146 144 139 133 134 141 136 134 131 121 109 93 72 65 49 45 58 54 42 50 57
176 172 161 158 154 157 155 162 154 162 152 146 136 132 146 156 148 139 138 138 130 114 92 72 64 35 21 34 36 55 46 52
172 173 166 165 159 160 162 155 164 168 151 147 153 161 176 163 156 152 154 151 147 125 82 95 136 99 29 53 50 40 57 9
167 172 171 169 164 158 162 169 167 160 159 178 172 180 164 169 157 165 164 145 153 162 166 132 4 355 0 29 61 78 94 17
161 162 162 157 152 151 150 153 150 171 186 190 208 183 183 184 183 173 169 177 165 159 139 134 61 79 86 81 69 77 73 96
154 153 162 161 147 150 152 146 163 179 197 201 191 191 200 196 186 176 176 170 176 164 165 157 162 197 105 112 118 90 39 106
161 156 162 156 152 166 163 162 187 200 202 212 200 200 203 192 186 183 182 180 176 183 192 181 176 189 191 108 36 32 20 48
158 159 163 159 158 170 194 198 201 200 201 217 198 204 206 196 197 191 190 188 181 186 176 193 196 200 207 169 343 338 332 332
163 164 172 174 182 188 203 205 204 201 207 222 208 207 205 198 206 200 205 195 194 197 199 203 212 208 226 257 273 278 305 289
170 178 179 188 193 193 203 202 205 206 213 208 217 207 209 207 212 212 215 203 205 206 206 210 203 210 232 254 260 266 269 253
186 185 190 197 200 198 206 207 208 217 216 203 219 204 218 223 217 227 219 207 212 210 208 228 220 224 244 289 282 261 282 234
195 198 198 202 204 206 210 210 210 217 222 209 216 214 225 235 217 227 225 211 209 222 217 217 215 220 250 296 299 276 239 246
202 204 206 208 209 210 210 211 213 218 227 223 222 228 227 225 230 225 222 211 221 231 238 222 219 238 274 293 307 293 300 246
204 207 208 210 209 210 210 212 213 218 220 223 226 230 237 222 228 226 224 219 219 233 230 224 218 230 271 287 268 272 280 276
207 208 210 211 213 210 214 217 217 220 224 232 233 227 235 227 227 230 226 225 223 231 223 226 223 257 238 281 269 267 270 269
211 211 214 214 215 218 213 220 219 223 225 226 225 222 236 227 221 233 234 232 224 226 225 232 232 271 299 278 253 259 268 267
212 214 216 216 217 219 221 220 223 226 231 232 223 233 241 243 260 259 246 235 231 245 249 248 253 271 287 252 258 264 265 265
213 215 216 215 218 221 222 225 223 226 234 238 246 259 261 270 272 257 249 245 245 247 242 262 246 292 249 241 258 257 259 257